Regional Weather Roundup
Issued by NWS Cleveland, OH

Home | Current Version | Previous Version | Text Only | Print | Product List | Glossary Off
Versions: 1 2 3 4 5 6 7 8 9 10 11 12 13 14 15 16 17 18 19 20 21 22 23 24 25 26 27 28 29 30 31 32 33 34 35 36 37 38 39 40 41 42 43 44 45 46 47 48 49 50

000
ASUS41 KCLE 281610
RWRCLE
OHIO REGIONAL WEATHER ROUNDUP
NATIONAL WEATHER SERVICE WILMINGTON, OH
1200 PM EDT THU APR 28 2016

NOTE: "FAIR" INDICATES FEW OR NO CLOUDS BELOW 12,000 FEET WITH NO
SIGNIFICANT WEATHER AND/OR OBSTRUCTIONS TO VISIBILITY.

OHZ001>008-015>018-024>027-034-035-043-044-281700-
   NORTHWEST OHIO

CITY           SKY/WX    TMP DP  RH WIND       PRES   REMARKS
DEFIANCE       CLOUDY    49  41  74 E16G22    29.91R
FINDLAY        CLOUDY    47  41  80 NE17      29.88F
TOLEDO EXPRESS CLOUDY    46  39  76 E22       29.92F
TOLEDO EXEC    CLOUDY    45  38  76 NE18G26   29.95F
LIMA           CLOUDY    48  45  89 E16       29.87R
$$

OHZ009>014-019>023-028>033-038-089-281700-
   NORTHEAST OHIO

CITY           SKY/WX    TMP DP  RH WIND       PRES   REMARKS
CLE-HOPKINS    LGT RAIN  47  41  80 N7        29.96R
CLE-LAKEFRONT  CLOUDY    48  39  71 NE8       29.93R
CUY CO. ARPT   LGT RAIN  46  41  81 E9        29.93S
LORAIN-ELYRIA  LGT RAIN  46  40  79 NE10      29.94S
ASHTABULA      CLOUDY    47  34  60 NE3       29.96R
AKRON-CANTON   LGT RAIN  45  40  82 NE8       29.91S
WOOSTER        CLOUDY    44  41  89 NE8       29.91S
MANSFIELD      LGT RAIN  44  43  96 NE7       29.89F
YOUNGSTOWN     LGT RAIN  47  40  76 E13       29.91F
$$

OHZ042-051>053-060>062-070>072-077>081-281700-
  SOUTHWEST OHIO

CITY           SKY/WX    TMP DP  RH WIND       PRES   REMARKS
CINC-COVINGTON CLOUDY    66  63  90 S10       29.83S
CINC-LUNKEN    CLOUDY    65  64  97 CALM      29.84S
HAMILTON       CLOUDY    63  60  90 SE5       29.84S FOG
DAYTON         CLOUDY    58  53  84 SE7       29.84R
WRIGHT-PAT AFB CLOUDY    58  55  89 SE7       29.83S
DAYTON GENERAL CLOUDY    56  53  90 E8        29.83S FOG
WILMINGTON     CLOUDY    58  57  97 SE3       29.84S FOG
$$

OHZ036-037-039>041-045>050-054>059-063>069-073>076-082>088-281700-
  CENTRAL AND SOUTHEAST OHIO

CITY           SKY/WX    TMP DP  RH WIND       PRES   REMARKS
COLUMBUS       CLOUDY    57  48  72 VRB3      29.85F
OSU AIRPORT    CLOUDY    54  45  71 NE9       29.84F
BOLTON FIELD   CLOUDY    55  50  82 NE6       29.85F
RICKENBACK AFB CLOUDY    55  50  83 E7        29.83F
NEWARK         CLOUDY    58  47  66 VRB3      29.86F
MARION         CLOUDY    47  44  90 NE14      29.88F
LANCASTER      CLOUDY    59  53  80 NE3       29.85F
ZANESVILLE     CLOUDY    57  50  77 CALM      29.87F
NEW PHILLY     CLOUDY    48  45  89 NW3       29.91R FOG
$$




USA.gov is the U.S. government's official web portal to all federal, state and local government web resources and services.